[[{"header":{"parameterUnit":"m.s-1","parameterCategory":1,"la1":30.2991,"la2":30.254,"lo1":-89.0895,"lo2":-89.0444,"dy":0.0017,"dx":0.0017,"nx":28,"ny":28,"refTime":"2024-07-13T21:00:00:Z","depth":0,"parameterNumber":2,"parameterNumberName":"U-component_of_WINDS"},"data":[0,0,0,0,0,0,0,0,0,0,0,0,0,0,0,0,0,0,0,0,0,0,0,0,0,0,0,0,0,0,0,0,0,0,0,0,0,0,0,0,0,0,0,0,0,0,0,0,0,0,0,0,0,0,0,0,0,0,1.1585,1.1585,0,1.1583,1.1583,1.1583,1.1524,1.1522,1.1521,1.1519,1.152,1.1522,1.1523,0,0,0,0,0,0,0,0,0,0,0,0,0,1.154,1.1542,1.1585,1.1585,1.1585,1.1583,1.1583,1.1583,1.1524,1.1522,1.152,1.1519,1.152,1.1521,1.1523,0,0,0,0,0,0,0,0,0,0,0,0,0,1.1551,1.1542,1.1585,1.1555,1.1552,1.1583,1.1583,1.1583,1.1524,1.1522,1.152,1.1518,1.1519,1.1521,1.1523,1.1583,0,0,1.153,1.1531,0,0,0,0,0,0,0,0,1.1551,1.1553,1.1559,1.1557,1.1554,1.1551,1.1568,1.1583,1.1525,1.1535,1.1519,1.1517,1.1533,1.1533,1.1538,1.1583,1.1583,1.153,1.1532,1.1533,1.1533,0,0,0,0,0,0,0,1.155,1.1553,1.1584,1.1559,1.1556,1.1543,1.1542,1.157,1.1547,1.1534,1.153,1.153,1.1531,1.1536,1.1538,1.1583,1.153,1.1532,1.1534,1.1534,1.1679,1.1682,0,0,0,0,0,0,1.1553,1.1553,1.1584,1.1584,1.1547,1.1546,1.1544,1.1554,1.1546,1.1543,1.1532,1.1527,1.1534,1.1535,1.1538,1.1609,1.1533,1.1535,1.1536,1.1677,1.168,1.1683,0,0,0,0,0,0,1.1552,1.1556,1.1584,1.1567,1.157,1.1549,1.1561,1.1556,1.1561,1.1545,1.1541,1.1542,1.1532,1.1535,1.1573,1.1608,1.1536,1.1538,1.1674,1.1678,1.1681,1.175,0,0,0,0,0,0,1.1551,1.1556,1.1578,1.1568,1.1571,1.1618,1.1563,1.1557,1.1565,1.1559,1.1553,1.155,1.153,1.157,1.1575,1.1609,1.1539,1.1671,1.1676,1.168,1.1744,1.1756,1.1765,0,0,0,0,0,1.155,1.1598,1.1579,1.1584,1.1597,1.162,1.1622,1.1597,1.1568,1.159,1.158,1.155,1.1603,1.1574,1.1579,1.1615,1.1668,1.1674,1.168,1.174,1.1753,1.1765,0,0,0,0,0,0,1.1613,1.1596,1.1575,1.1621,1.1622,1.161,1.1637,1.1612,1.1623,1.1617,1.1587,1.1586,1.163,1.1626,1.1594,1.1674,1.163,1.1638,1.1674,1.1687,1.1697,1.1698,1.1541,0,0,0,0,0,1.1632,1.1651,1.1635,1.1677,1.1679,1.1658,1.1667,1.1649,1.1649,1.165,1.1642,1.1645,1.1662,1.1674,1.1689,1.1743,1.1742,1.1771,1.1781,1.179,1.1797,1.1827,1.184,1.1701,1.1701,1.1701,0,0,1.1672,1.1665,1.1679,1.169,1.1689,1.1711,1.1659,1.1684,1.1701,1.1654,1.1689,1.1684,1.1685,1.1732,1.1753,1.1731,1.1835,1.1797,1.1804,1.1806,1.1834,1.1847,1.1859,1.1705,1.1704,1.1704,0,0,1.1756,1.1752,1.1787,1.1787,1.1786,1.1772,1.1781,1.1772,1.1767,1.1802,1.1768,1.1788,1.1818,1.182,1.1826,1.1913,1.1886,1.1918,1.1973,1.2003,1.2014,1.2023,1.2056,1.2068,1.1925,1.1925,1.1925,0,1.1806,1.1836,1.1808,1.1836,1.1843,1.1801,1.1837,1.1839,1.1844,1.185,1.1825,1.1863,1.186,1.1908,1.1929,1.1935,1.1945,1.1919,1.2014,1.2023,1.2032,1.2063,1.2075,1.1929,1.1929,1.1928,1.1928,0,1.1899,1.1921,1.1949,1.1954,1.1964,1.1996,1.1974,1.1988,1.1969,1.1958,1.1995,1.1991,1.2005,1.2015,1.1997,1.2061,1.2048,1.2019,1.1975,1.205,1.2078,1.209,1.1935,1.1933,1.1932,1.1931,0,0,1.2022,1.2012,1.2023,1.2025,1.2022,1.2039,1.207,1.2083,1.2096,1.2101,1.2127,1.2154,1.2128,1.2134,1.2116,1.2142,1.2213,1.211,1.2109,1.2131,1.2286,1.2309,1.2323,1.2195,1.2197,1.2199,1.2287,0,1.2104,1.2156,1.2132,1.2187,1.2208,1.2169,1.2196,1.2198,1.2189,1.2207,1.2197,1.2217,1.218,1.2184,1.2208,1.2199,1.2244,1.2192,1.2221,1.2223,1.2223,1.2337,1.2361,1.2444,1.2297,1.2299,1.2301,0,1.2207,1.2216,1.2273,1.2267,1.2275,1.23,1.2311,1.2327,1.2329,1.2321,1.2329,1.2305,1.2336,1.2292,1.2337,1.2302,1.2312,1.231,1.2313,1.2316,1.2267,1.2345,1.2469,1.2483,1.2318,1.2316,1.2315,0,1.2294,1.232,1.2357,1.2361,1.2354,1.2373,1.2371,1.2371,1.2381,1.2391,1.2397,1.2411,1.242,1.2432,1.2413,1.2382,1.246,1.2414,1.2456,1.2457,1.2475,1.2474,1.2605,1.248,1.2479,1.2479,1.2479,0,1.2389,1.2426,1.2396,1.242,1.246,1.2433,1.2475,1.2469,1.2469,1.2492,1.2459,1.2481,1.2454,1.2475,1.246,1.25,1.2504,1.2499,1.2495,1.2503,1.2504,1.251,1.2504,1.2482,1.2482,1.2481,1.2481,0,1.2493,1.2474,1.2513,1.2504,1.2503,1.2533,1.2526,1.2548,1.2537,1.2567,1.2572,1.2555,1.2577,1.256,1.2581,1.2572,1.2625,1.2612,1.2624,1.2621,1.2665,1.2662,1.2805,1.2823,1.2685,1.2686,1.2688,0,1.2555,1.2582,1.2577,1.2589,1.2589,1.261,1.262,1.2595,1.2608,1.2613,1.2635,1.2654,1.2668,1.2706,1.2696,1.2713,1.2702,1.2751,1.2704,1.2712,1.2704,1.2704,1.2707,1.2761,1.2762,1.2764,1.2765,0,1.2669,1.2659,1.2674,1.2687,1.27,1.2709,1.2716,1.2729,1.2703,1.2719,1.2741,1.2752,1.2775,1.2795,1.2809,1.2808,1.2784,1.2779,1.279,1.2799,1.2806,1.2804,1.2652,1.2776,1.2775,1.2774,1.2774,1.2773,1.2755,1.2778,1.2778,1.2797,1.2799,1.2806,1.2827,1.2819,1.2837,1.2853,1.2837,1.2865,1.2867,1.2883,1.2886,1.2908,1.2888,1.2903,1.2908,1.2912,1.2919,1.2801,1.2911,1.291,1.291,1.291,1.2909,0,1.2868,1.2866,1.2884,1.2894,1.291,1.2884,1.289,1.2905,1.2929,1.2934,1.2948,1.2975,1.2995,1.2987,1.3005,1.3025,1.3014,1.303,1.3029,1.303,1.2935,1.2925,1.3039,1.3039,1.3039,1.3039,1.3039,1.3039,1.2929,1.2967,1.2958,1.2998,1.2996,1.3022,1.3028,1.3035,1.3039,1.3069,1.3086,1.308,1.3081,1.3098,1.3116,1.3114,1.3123,1.3144,1.3137,1.3049,1.3036,1.3024,1.3014,1.3146,1.3146,1.3231,1.3231,1.3232]},{"header":{"parameterUnit":"m.s-1","parameterCategory":1,"la1":30.2991,"la2":30.254,"lo1":-89.0895,"lo2":-89.0444,"dy":0.0017,"dx":0.0017,"nx":28,"ny":28,"refTime":"2024-07-13T21:00:00:Z","depth":0,"parameterNumber":3,"parameterNumberName":"V-component_of_WINDS"},"data":[0,0,0,0,0,0,0,0,0,0,0,0,0,0,0,0,0,0,0,0,0,0,0,0,0,0,0,0,0,0,0,0,0,0,0,0,0,0,0,0,0,0,0,0,0,0,0,0,0,0,0,0,0,0,0,0,0,0,-0.4613,-0.4612,0,-0.4575,-0.4575,-0.4574,-0.4546,-0.4546,-0.4546,-0.4546,-0.4506,-0.4505,-0.4505,0,0,0,0,0,0,0,0,0,0,0,0,0,-0.4661,-0.4661,-0.4613,-0.4612,-0.4612,-0.4575,-0.4574,-0.4574,-0.4546,-0.4546,-0.4546,-0.4546,-0.4507,-0.4506,-0.4505,0,0,0,0,0,0,0,0,0,0,0,0,0,-0.4634,-0.466,-0.4613,-0.4594,-0.4591,-0.4575,-0.4574,-0.4574,-0.4546,-0.4546,-0.4546,-0.4545,-0.4507,-0.4506,-0.4504,-0.4504,0,0,-0.4501,-0.45,0,0,0,0,0,0,0,0,-0.4635,-0.4632,-0.4597,-0.4595,-0.4593,-0.4565,-0.4577,-0.455,-0.4547,-0.4564,-0.4546,-0.4545,-0.4526,-0.4523,-0.4517,-0.4502,-0.45,-0.4501,-0.45,-0.4499,-0.4499,0,0,0,0,0,0,0,-0.4637,-0.4633,-0.4598,-0.4596,-0.4594,-0.4587,-0.4583,-0.4572,-0.4547,-0.4562,-0.456,-0.4556,-0.4525,-0.4518,-0.4516,-0.45,-0.4501,-0.4499,-0.4499,-0.4498,-0.4484,-0.4485,0,0,0,0,0,0,-0.4642,-0.4635,-0.4599,-0.4597,-0.4613,-0.4586,-0.4582,-0.4574,-0.4547,-0.4543,-0.4556,-0.4555,-0.452,-0.4517,-0.4514,-0.4513,-0.4499,-0.4498,-0.4497,-0.4484,-0.4485,-0.4485,0,0,0,0,0,0,-0.4643,-0.4639,-0.46,-0.4615,-0.461,-0.4586,-0.4578,-0.4574,-0.4567,-0.4543,-0.4538,-0.4554,-0.452,-0.4516,-0.4507,-0.4511,-0.4497,-0.4496,-0.4484,-0.4484,-0.4485,-0.451,0,0,0,0,0,0,-0.4645,-0.464,-0.4639,-0.4615,-0.4609,-0.4594,-0.4578,-0.4573,-0.4565,-0.4563,-0.454,-0.4535,-0.4519,-0.4509,-0.4506,-0.4509,-0.4495,-0.4483,-0.4484,-0.4485,-0.4509,-0.4511,-0.4514,0,0,0,0,0,-0.4647,-0.4647,-0.4639,-0.4635,-0.4608,-0.4594,-0.459,-0.4572,-0.4565,-0.4565,-0.455,-0.4536,-0.4511,-0.4508,-0.4505,-0.4508,-0.4483,-0.4484,-0.4485,-0.4508,-0.4511,-0.4514,0,0,0,0,0,0,-0.4671,-0.4643,-0.4634,-0.4627,-0.4613,-0.4589,-0.4588,-0.4576,-0.4564,-0.4562,-0.454,-0.4535,-0.4529,-0.4517,-0.4514,-0.4507,-0.4495,-0.4496,-0.4514,-0.4517,-0.452,-0.4523,-0.4494,0,0,0,0,0,-0.4675,-0.4667,-0.4643,-0.4639,-0.4633,-0.4612,-0.4605,-0.4592,-0.4577,-0.4571,-0.4555,-0.454,-0.453,-0.4523,-0.4511,-0.4507,-0.4502,-0.4507,-0.451,-0.4512,-0.4513,-0.4511,-0.4514,-0.4488,-0.4488,-0.4488,0,0,-0.4684,-0.4668,-0.4664,-0.4644,-0.4631,-0.4623,-0.4607,-0.4598,-0.4592,-0.4569,-0.456,-0.4549,-0.4531,-0.4525,-0.4521,-0.4515,-0.4519,-0.4513,-0.4515,-0.4514,-0.4512,-0.4515,-0.4517,-0.4488,-0.4488,-0.4488,0,0,-0.4697,-0.4684,-0.468,-0.4668,-0.465,-0.4637,-0.4636,-0.4614,-0.4606,-0.4597,-0.458,-0.4572,-0.4554,-0.4542,-0.4534,-0.4545,-0.4533,-0.4542,-0.4555,-0.4554,-0.4556,-0.4558,-0.4563,-0.4565,-0.4542,-0.4542,-0.4542,0,-0.4711,-0.4698,-0.4679,-0.4672,-0.4664,-0.4644,-0.464,-0.463,-0.4609,-0.4604,-0.4598,-0.4575,-0.4562,-0.4554,-0.4557,-0.455,-0.4549,-0.4544,-0.4557,-0.4559,-0.456,-0.4565,-0.4566,-0.4544,-0.4543,-0.4543,-0.4543,0,-0.4716,-0.4707,-0.4706,-0.4688,-0.4679,-0.4674,-0.4655,-0.4649,-0.4638,-0.4625,-0.4617,-0.4601,-0.4587,-0.4584,-0.4572,-0.4574,-0.4571,-0.4561,-0.455,-0.4564,-0.4568,-0.457,-0.4546,-0.4545,-0.4545,-0.4544,0,0,-0.4741,-0.4714,-0.4714,-0.4706,-0.4686,-0.4679,-0.4674,-0.466,-0.4656,-0.4643,-0.4638,-0.4624,-0.4615,-0.4606,-0.4593,-0.4592,-0.4604,-0.4582,-0.4582,-0.4588,-0.4607,-0.4615,-0.4618,-0.4595,-0.4596,-0.4596,-0.4609,0,-0.4751,-0.4741,-0.4725,-0.4719,-0.4712,-0.4694,-0.4689,-0.4677,-0.4665,-0.4657,-0.4644,-0.4635,-0.4623,-0.4618,-0.4616,-0.4603,-0.4607,-0.4601,-0.4591,-0.4591,-0.4597,-0.4619,-0.4628,-0.4641,-0.461,-0.461,-0.4611,0,-0.4761,-0.475,-0.4745,-0.4727,-0.4723,-0.4719,-0.4707,-0.4699,-0.4685,-0.4677,-0.4668,-0.4655,-0.4649,-0.4638,-0.463,-0.4627,-0.4622,-0.4615,-0.4615,-0.4613,-0.4602,-0.462,-0.4644,-0.4647,-0.4613,-0.4613,-0.4612,0,-0.4782,-0.4766,-0.4761,-0.4754,-0.4733,-0.4731,-0.4722,-0.4708,-0.4701,-0.4691,-0.4687,-0.4675,-0.4669,-0.466,-0.4645,-0.4638,-0.4639,-0.4627,-0.4633,-0.4633,-0.4634,-0.4634,-0.4659,-0.4629,-0.4629,-0.4629,-0.4629,0,-0.4795,-0.4793,-0.477,-0.4767,-0.4764,-0.4746,-0.4744,-0.4733,-0.4721,-0.4716,-0.4699,-0.4695,-0.4674,-0.4667,-0.4655,-0.4651,-0.4648,-0.4642,-0.4639,-0.4644,-0.4645,-0.464,-0.4639,-0.463,-0.463,-0.463,-0.463,0,-0.4818,-0.4802,-0.4796,-0.4777,-0.4772,-0.4771,-0.4755,-0.4752,-0.474,-0.4734,-0.4731,-0.4713,-0.4705,-0.4688,-0.4675,-0.4666,-0.4666,-0.466,-0.4671,-0.4669,-0.4676,-0.4676,-0.47,-0.4703,-0.4671,-0.4671,-0.4672,0,-0.4827,-0.4825,-0.4807,-0.4803,-0.4795,-0.4788,-0.4782,-0.4765,-0.4759,-0.4744,-0.4743,-0.4734,-0.4725,-0.4713,-0.4698,-0.4689,-0.4683,-0.4692,-0.4681,-0.4687,-0.4684,-0.4685,-0.4685,-0.4694,-0.4695,-0.4695,-0.4695,0,-0.4846,-0.4839,-0.4831,-0.4822,-0.4815,-0.4806,-0.4797,-0.4794,-0.4775,-0.477,-0.4762,-0.4755,-0.4743,-0.4734,-0.4723,-0.4714,-0.4702,-0.4699,-0.47,-0.4705,-0.4712,-0.471,-0.4678,-0.4698,-0.4698,-0.4698,-0.4698,-0.4697,-0.4863,-0.4861,-0.4849,-0.4841,-0.4832,-0.4824,-0.4821,-0.4809,-0.4802,-0.4791,-0.4782,-0.4775,-0.4762,-0.4746,-0.4738,-0.4733,-0.4727,-0.4728,-0.4728,-0.4729,-0.4732,-0.4713,-0.473,-0.473,-0.473,-0.473,-0.473,0,-0.4882,-0.4874,-0.4867,-0.4855,-0.4849,-0.4839,-0.4829,-0.4825,-0.4819,-0.4809,-0.4801,-0.4793,-0.4785,-0.4771,-0.4762,-0.476,-0.4755,-0.4759,-0.4759,-0.4757,-0.4737,-0.4738,-0.4764,-0.4764,-0.4764,-0.4764,-0.4764,-0.4764,-0.4892,-0.4888,-0.488,-0.4873,-0.4864,-0.4858,-0.4853,-0.4846,-0.4838,-0.483,-0.4823,-0.4814,-0.4803,-0.4793,-0.4786,-0.4782,-0.478,-0.4786,-0.478,-0.4762,-0.4759,-0.4756,-0.4756,-0.4785,-0.4785,-0.4801,-0.4801,-0.4801]}]]